Location: Catenanuova
(37.5690°N, 14.6870°E)
Time: 21:13:40
(UTC+02:00)

BlueWalker 3 - Pass Details

Date: 16 May 2025
Orbit: 460 x 472 km, 53.2° (Epoch: 16 June)

Event Time Altitude Azimuth Distance (km) Brightness Sun altitude
Rises 23:05:26 0° 323° (NW) 2,494 6.8 -27.3°
Reaches altitude 10° 23:08:16 10° 347° (NNW) 1,620 5.4 -27.6°
Enters shadow 23:10:27 16° 24° (NNE) 1,316 4.4 -27.8°
